Probability
0 0 0 0 0 0 0 0 0 0 0 0 0 0 0 0 0 0 0 0 0 1 2 2 1 0 1 3 3 3 4 5 6 6 5 4 2 1 0 0 0 0 1 3 3 3 4 5 4
0 0 0 0 0 0 0 0 0 0 0 0 0 0 0 0 0 0 0 0 0 1 2 2 1 1 2 3 3 3 3 4 4 5 4 3 3 1 1 0 0 1 2 3 3 3 4 4 4
0 0 0 0 0 0 0 0 0 0 0 0 0 0 0 0 0 0 0 0 0 0 1 2 2 1 2 3 3 3 3 3 3 4 3 3 3 3 2 1 0 1 2 3 3 3 4 4 4
0 0 0 0 0 0 0 0 0 0 0 0 1 1 1 0 0 0 0 0 0 0 1 2 2 3 4 4 3 3 3 3 3 3 3 3 3 3 3 2 1 1 2 2 2 3 4 4 4
0 0 0 0 0 0 0 0 0 0 0 1 1 1 1 0 0 0 0 0 0 0 1 1 2 4 6 5 4 3 3 3 3 3 3 3 3 3 3 3 3 2 2 2 1 2 4 5 5
0 0 0 0 0 0 0 0 0 0 0 1 1 1 0 0 0 1 1 1 1 0 0 0 1 3 4 5 5 4 4 4 4 2 2 2 2 2 2 2 2 2 1 1 0 0 2 3 3
0 0 0 0 0 0 0 0 0 0 0 1 1 0 0 0 0 1 3 3 2 1 0 0 0 1 2 4 6 6 5 6 5 2 1 1 1 1 1 1 1 1 0 0 0 0 0 1 2
0 0 0 0 0 0 0 0 0 0 1 1 0 0 0 1 1 2 4 4 2 1 0 0 0 1 1 3 5 6 5 5 5 3 1 0 0 0 0 0 0 0 0 0 0 1 1 2 2
0 0 0 0 0 0 0 0 0 1 1 2 1 1 3 4 4 4 4 2 1 1 0 0 1 3 3 3 4 4 3 3 3 3 2 1 1 1 1 0 0 0 0 0 1 2 2 2 2
0 0 0 0 0 0 0 1 1 1 1 2 3 4 8 10 8 5 3 1 1 2 2 2 3 5 6 5 4 2 1 1 1 2 3 3 2 2 2 1 0 0 0 0 1 2 1 1 1
0 0 0 0 0 0 1 2 2 1 1 2 4 8 15 17 12 6 2 1 2 5 6 6 6 7 8 7 5 4 3 2 2 2 3 3 3 3 3 2 1 0 0 0 1 1 0 0 0
0 0 0 0 0 0 1 1 1 0 0 2 5 11 19 20 14 8 4 2 4 7 9 9 9 10 10 8 6 6 6 5 4 5 5 3 2 2 3 3 2 1 0 0 0 0 0 0 0
0 0 0 0 0 0 0 0 0 0 1 3 6 11 17 19 15 10 7 6 6 8 10 11 11 12 12 11 10 8 8 8 7 6 6 5 3 2 2 3 2 1 0 0 0 0 0 0 0
0 0 0 0 0 0 0 0 0 1 4 6 7 9 13 16 14 11 9 8 8 9 11 11 12 13 13 13 12 11 10 9 9 8 7 6 4 3 2 2 2 1 1 1 1 1 0 0 0
0 0 0 0 0 0 0 0 1 3 6 8 7 8 11 12 11 10 10 10 11 12 11 12 13 13 12 11 12 12 10 10 9 9 8 7 6 5 4 3 2 3 3 3 2 2 1 0 0
0 0 0 0 0 0 0 0 1 4 6 7 7 7 8 9 9 10 10 11 14 14 12 13 13 12 11 10 11 11 10 9 9 8 8 7 6 6 5 4 3 4 5 4 3 3 2 1 0
0 0 0 0 0 0 0 0 1 3 5 6 7 6 7 7 8 9 10 11 13 15 14 14 14 12 12 11 11 10 8 7 6 5 5 6 6 5 4 3 3 4 4 4 4 4 3 2 1
0 0 0 0 0 0 1 1 1 3 4 6 8 7 7 7 9 11 11 10 12 14 15 15 14 13 13 12 10 9 6 5 4 3 3 4 4 4 3 3 3 3 4 4 5 6 4 3 2
0 0 0 0 0 1 2 2 1 1 3 5 8 8 8 8 11 13 12 10 11 12 13 14 14 13 13 12 10 8 6 4 3 3 3 2 1 2 3 3 3 4 5 4 4 5 4 2 2
0 0 0 0 0 1 2 2 1 0 1 3 6 8 9 10 12 14 14 11 9 9 10 11 12 13 12 11 9 8 6 4 3 3 2 1 1 2 3 3 4 5 5 4 4 4 4 3 3
0 0 0 0 0 0 1 1 1 0 1 2 3 6 10 11 13 16 16 15 12 9 8 9 10 11 11 9 7 7 6 4 3 3 1 0 1 2 3 4 6 7 6 5 4 5 5 4 4
0 0 0 0 0 0 0 0 0 0 1 1 2 4 9 13 15 16 17 16 15 12 10 9 9 9 9 8 6 6 6 5 4 2 1 1 2 3 4 5 6 7 7 6 5 4 4 4 4
0 0 0 0 0 0 0 0 0 0 0 1 2 4 8 13 16 17 16 16 17 17 15 13 10 8 8 8 6 5 5 5 4 3 3 3 4 5 6 5 4 4 5 4 3 3 3 3 3
0 0 0 0 0 0 0 0 0 0 1 1 3 6 9 12 16 17 16 17 19 19 18 17 13 9 7 8 7 5 5 4 5 5 5 4 4 5 5 4 2 2 3 3 2 1 2 2 2
0 0 0 0 0 0 0 0 0 1 2 3 5 8 10 12 16 17 16 17 20 20 20 20 17 12 9 9 9 6 6 6 6 6 5 3 2 2 2 2 1 1 2 3 2 1 1 1 1
0 0 0 0 0 0 0 0 0 1 2 3 5 8 11 13 16 16 14 15 18 20 23 24 21 16 13 11 10 7 7 7 7 6 5 2 1 0 0 0 0 0 1 2 2 2 1 0 0
0 0 0 0 0 0 0 0 0 0 1 2 4 8 11 13 15 13 12 13 17 22 26 27 26 22 17 13 11 8 7 6 6 5 4 3 2 1 1 0 0 0 0 1 1 1 1 0 0
0 0 0 0 0 0 0 0 0 0 0 1 2 5 8 10 12 11 10 13 20 25 27 28 27 24 19 15 12 10 7 5 4 4 3 3 3 3 2 1 0 0 0 0 1 2 1 0 0
0 0 0 0 0 0 0 0 0 0 1 1 2 3 4 6 8 9 10 13 20 25 28 28 26 23 18 14 11 10 8 6 4 4 3 3 4 4 4 2 1 0 0 1 2 3 1 1 1
0 0 0 0 0 0 0 0 0 1 2 2 3 2 2 3 6 8 9 12 17 23 27 28 26 22 17 13 10 10 9 7 6 5 4 4 5 5 5 3 2 1 0 1 2 2 2 2 2
Wind_Speed
1 2 2 2 5 5 2 2 1 1 2 1 4 5 5 3 2 2 1 6 8 7 6 8 10 10 10 10 10 10 9 10 10 10 9 9 9 9 9 9 9 9 9 10 11 11 11 11 10
2 2 2 4 6 3 3 2 1 1 3 3 4 5 5 3 3 5 3 5 9 8 5 7 11 10 10 10 10 9 9 9 9 9 9 9 8 8 8 9 9 9 9 9 10 10 10 10 10
2 1 4 5 4 3 2 2 1 2 2 2 3 4 3 2 4 4 4 9 8 7 5 7 11 10 10 10 10 9 9 9 9 8 8 8 7 7 7 8 9 9 9 9 10 10 10 9 10
2 3 5 5 1 2 3 2 2 2 2 3 4 4 3 3 3 5 9 10 9 6 5 6 11 10 10 9 9 9 9 8 8 8 8 7 7 7 7 7 8 8 8 8 9 9 9 8 9
3 4 6 3 2 2 2 2 1 2 1 2 4 4 3 4 6 11 10 9 9 6 4 4 10 9 9 9 9 9 8 8 7 7 7 7 7 7 7 7 8 8 8 8 8 8 8 8 8
5 5 5 1 3 3 2 1 2 2 2 3 4 4 2 3 7 9 9 7 6 6 4 4 8 9 8 8 8 7 7 7 7 7 7 6 6 6 6 7 7 7 7 7 7 7 7 7 7
5 5 3 2 1 2 1 1 3 2 2 3 5 5 2 4 6 8 8 7 6 5 4 3 4 5 7 8 7 7 7 7 6 6 6 6 6 6 6 6 6 6 6 6 7 6 6 7 6
4 5 2 1 1 2 1 1 1 2 2 3 5 7 5 6 9 8 7 6 5 4 3 3 3 3 3 4 7 7 6 6 6 6 5 5 5 5 5 4 5 5 5 5 6 6 6 6 6
4 6 2 3 3 2 1 1 1 1 3 2 2 4 6 13 12 10 7 5 5 4 3 3 3 3 3 3 5 5 5 4 4 4 4 4 2 2 2 3 3 3 4 4 5 6 6 5 5
5 3 5 5 4 2 2 2 2 2 2 2 3 6 12 14 13 12 10 9 8 7 5 3 3 3 3 3 3 2 2 2 2 2 2 2 2 1 2 2 3 3 3 4 4 5 4 3 2
3 5 4 3 3 2 1 1 2 4 3 5 8 11 14 14 11 11 10 9 8 7 6 5 4 3 3 2 2 1 1 1 1 2 2 2 2 1 2 1 2 2 2 2 3 3 2 2 2
2 4 3 3 2 1 2 2 1 4 6 5 9 15 16 15 13 12 11 9 7 7 6 5 5 4 3 2 2 2 1 1 1 1 1 2 1 1 1 1 1 2 1 2 2 2 2 3 3
2 3 3 3 2 2 2 2 2 4 4 4 9 13 15 15 12 9 7 7 7 7 6 6 5 5 4 3 2 3 2 2 1 1 1 2 1 1 1 1 1 1 1 1 2 2 2 2 2
2 2 3 3 1 1 2 1 1 5 3 7 10 11 12 12 11 9 8 7 8 8 7 6 7 6 4 3 2 2 2 2 1 1 1 2 1 1 1 1 1 1 1 1 1 2 2 2 2
1 2 4 2 0 1 3 2 3 4 5 7 9 9 9 9 10 10 11 10 9 8 7 7 7 5 5 3 3 2 2 2 1 1 2 2 2 2 1 1 1 1 1 2 2 2 2 2 2
2 2 2 4 1 1 4 4 4 2 6 7 7 8 8 7 8 8 8 8 7 7 7 7 7 6 5 4 3 2 2 2 1 1 1 2 2 2 2 1 1 1 1 2 2 2 2 2 2
4 1 1 4 1 1 2 4 4 1 4 5 6 7 7 6 6 6 7 6 7 7 7 6 5 5 5 4 2 2 2 1 1 1 1 1 2 3 2 1 1 1 2 2 2 2 2 2 1
2 1 1 3 3 0 1 3 4 1 3 5 5 6 6 7 7 6 6 6 6 6 6 6 5 5 4 2 2 1 1 1 1 1 1 2 1 2 2 2 1 2 2 2 2 2 2 2 1
3 2 3 5 3 0 2 3 4 2 2 3 4 6 7 7 4 4 5 6 6 5 6 6 6 5 5 3 3 2 2 1 1 1 1 2 2 2 2 2 2 2 2 2 2 2 3 2 1
2 2 4 5 2 1 1 3 3 2 4 6 7 7 7 5 4 5 5 5 6 6 6 6 6 6 6 4 3 2 2 1 1 0 1 2 2 2 2 2 2 2 2 3 2 2 2 1 1
3 5 5 4 4 3 2 3 2 2 2 1 2 4 6 8 8 6 6 6 6 7 8 7 6 6 5 5 3 2 2 2 1 0 0 1 2 2 2 3 2 2 2 2 2 2 3 2 1
5 6 5 3 1 3 1 2 5 3 2 3 3 4 5 6 6 6 6 6 6 6 5 6 6 5 5 5 5 5 4 3 2 1 1 1 1 2 2 3 3 2 2 2 2 2 1 2 1
6 3 3 2 3 1 1 2 7 2 3 5 6 6 6 6 7 7 6 6 4 4 4 4 5 5 4 5 6 5 3 2 2 2 2 1 1 1 2 2 2 2 2 2 2 2 2 1 1
3 4 5 5 4 1 3 4 6 4 6 5 5 5 6 6 6 6 5 4 3 3 4 4 5 4 4 5 5 5 5 4 4 3 2 1 1 1 1 2 2 2 2 2 2 2 2 2 2
4 6 3 3 2 5 2 3 8 6 5 6 6 5 5 5 6 6 6 6 5 5 5 5 5 4 3 4 4 4 5 5 5 4 3 2 1 1 1 1 2 2 2 2 2 2 2 2 2
5 9 7 5 5 4 1 4 7 5 3 2 3 3 3 4 5 6 6 6 6 7 6 6 6 5 4 4 4 3 3 3 3 3 3 3 2 2 2 2 2 2 2 2 2 2 2 1 2
5 4 6 6 2 1 3 4 6 1 2 2 1 1 2 3 4 5 5 6 6 7 7 7 7 5 4 4 4 3 3 2 2 2 2 2 1 1 2 2 2 2 2 2 3 2 2 1 1
5 7 5 5 5 3 3 3 4 3 3 1 0 1 2 2 3 4 4 5 5 5 5 5 6 6 5 5 4 3 3 3 3 3 2 2 1 1 2 1 1 2 2 2 2 1 1 1 1
3 4 5 4 4 6 3 6 5 5 4 4 3 3 3 3 3 4 3 3 4 4 5 5 5 5 5 5 4 4 3 3 3 2 2 2 2 2 2 2 2 2 2 2 2 2 2 2 1
4 6 7 5 3 4 4 7 3 2 3 3 3 2 1 1 1 2 3 4 4 4 5 5 5 5 5 5 4 3 3 3 3 2 2 2 2 2 2 2 2 2 2 2 3 2 2 2 2
Wind_Direction
172 128 123 86 56 49 14 303 274 353 29 44 93 101 110 108 151 174 108 129 128 134 146 149 145 139 134 127 121 117 115 114 112 111 112 114 116 118 122 123 122 120 119 120 118 117 117 118 119
136 140 83 61 77 56 312 288 340 351 151 117 82 78 81 71 74 108 119 134 131 135 138 144 144 141 136 129 125 121 117 116 114 114 115 115 116 120 123 127 125 123 122 123 122 121 120 120 121
165 143 83 71 91 157 241 257 154 67 98 98 82 63 84 100 119 137 143 136 126 129 131 150 144 141 136 133 128 124 121 118 115 116 116 116 117 120 123 126 126 124 124 124 122 123 124 123 123
106 53 54 68 91 223 216 227 157 103 49 57 97 75 65 61 135 135 133 133 127 128 133 155 145 143 138 137 132 128 125 121 117 117 116 113 114 119 123 124 125 124 125 126 125 125 125 125 126
64 74 58 38 307 276 250 245 170 125 99 81 101 100 57 25 97 121 132 135 134 132 133 151 146 145 142 139 134 131 128 123 119 118 116 112 108 109 118 124 123 123 124 124 125 124 126 126 128
58 65 77 1 297 296 281 208 114 92 96 98 103 105 79 98 117 133 133 130 131 132 132 137 145 144 142 139 137 132 132 129 125 121 117 115 114 110 114 123 125 127 128 126 125 124 124 126 129
100 93 133 194 279 301 260 89 116 119 124 145 129 112 115 134 137 132 125 121 122 126 126 128 135 142 148 146 141 133 128 131 129 124 121 119 118 118 118 122 125 128 130 129 126 123 123 125 128
120 101 103 237 217 261 271 66 79 140 159 127 128 141 177 168 141 124 114 112 121 125 128 131 125 122 133 144 144 138 132 131 131 130 130 128 123 117 116 114 119 123 128 130 129 125 121 125 127
88 80 167 217 202 242 217 69 332 108 113 102 125 154 154 139 137 127 122 123 139 148 149 143 135 128 127 138 145 139 135 125 121 122 127 117 79 71 88 104 112 122 127 126 126 122 119 119 118
91 131 218 219 206 216 239 187 181 113 113 113 84 91 122 138 146 150 155 162 168 173 174 161 150 143 138 146 122 109 113 105 88 75 77 76 73 65 80 85 100 103 108 119 118 120 116 107 86
140 186 229 246 225 205 208 224 169 146 211 200 173 150 145 151 158 165 171 175 178 177 176 174 164 152 143 123 118 106 97 96 89 91 86 82 75 61 51 53 49 45 59 61 71 78 90 95 97
172 235 219 247 214 186 195 185 168 197 223 199 166 154 154 163 172 177 179 179 173 174 183 175 167 157 151 132 134 132 127 128 126 125 120 106 94 79 66 64 57 54 51 60 66 80 94 98 101
209 262 254 239 249 218 190 215 201 248 237 135 141 151 163 170 177 180 176 172 169 178 182 177 172 168 160 146 158 155 159 157 158 140 137 130 124 119 98 79 78 76 77 85 87 89 100 103 111
234 256 294 288 255 218 169 249 155 251 157 133 150 166 174 175 175 172 171 175 179 183 184 179 177 175 164 162 169 155 155 147 148 155 159 151 142 133 125 105 93 87 92 94 98 111 120 112 103
288 338 341 323 237 215 116 330 236 228 137 148 167 174 176 179 177 183 184 183 184 185 181 180 176 172 172 170 165 148 152 146 156 171 169 164 156 146 137 132 110 110 111 105 99 91 97 102 100
45 48 337 298 282 196 132 244 263 195 153 168 176 179 182 189 191 191 186 184 181 175 175 181 179 174 175 170 160 140 146 149 157 168 167 171 168 157 145 147 148 128 120 119 114 107 96 86 86
32 61 264 302 294 122 146 240 267 198 161 180 183 183 183 187 199 193 182 182 178 175 173 175 173 173 178 170 151 137 134 146 147 144 160 171 162 155 149 158 149 127 118 116 124 104 110 108 98
222 214 266 271 291 17 238 252 269 213 181 190 185 180 180 189 202 188 173 170 168 165 164 169 170 169 161 143 119 100 102 138 134 155 163 158 150 146 144 149 137 125 115 107 106 104 93 100 108
168 184 259 264 270 250 246 254 259 230 189 186 186 184 190 199 182 156 162 162 154 154 163 172 174 168 154 152 159 160 197 204 187 191 169 161 147 141 140 144 135 135 133 136 132 120 103 87 93
175 228 266 289 308 173 241 269 262 208 209 201 192 189 193 182 157 161 158 160 161 167 175 177 179 169 167 169 164 165 159 172 183 168 146 160 156 145 152 154 156 147 131 125 129 127 122 96 88
214 204 226 246 342 27 95 334 315 288 262 230 208 192 185 185 183 179 175 176 172 177 182 183 178 172 169 157 127 109 84 68 73 65 130 174 170 161 154 165 161 151 145 156 160 146 142 136 90
243 224 205 212 76 292 99 270 283 268 270 237 221 202 196 194 184 180 182 184 187 190 176 172 165 161 163 155 157 162 166 174 193 184 175 142 141 150 155 158 156 153 145 151 162 131 126 128 127
214 201 173 183 165 277 353 166 279 296 258 243 225 215 209 196 184 182 184 183 180 169 159 156 149 147 154 165 171 165 162 163 141 125 132 129 124 135 142 139 141 147 145 149 140 123 126 137 153
164 75 57 54 83 236 233 172 268 238 233 251 231 219 211 190 180 178 174 161 158 153 151 148 145 147 155 163 165 162 158 150 141 145 151 156 148 135 139 146 145 154 156 159 163 159 161 166 171
107 93 39 2 12 247 244 174 245 254 245 232 221 215 209 184 176 173 172 169 166 165 166 161 156 159 162 165 170 170 168 163 163 165 169 162 160 177 190 169 162 162 175 168 153 150 160 174 177
170 144 158 191 215 264 287 223 254 270 277 238 199 183 177 175 177 180 181 177 177 176 172 167 170 172 168 171 175 168 160 162 168 170 164 172 184 200 189 180 183 177 170 163 149 142 170 175 196
145 173 164 137 160 214 265 276 299 325 0 41 80 115 173 179 181 179 178 179 178 178 178 175 171 167 172 172 163 153 157 161 165 164 162 166 175 180 168 173 177 170 157 153 150 159 184 177 202
141 144 109 127 154 228 276 264 257 260 262 272 259 208 204 189 182 177 181 182 178 175 171 164 163 164 164 162 162 151 156 167 163 153 157 168 174 157 155 171 179 166 158 158 154 162 190 171 212
113 108 112 122 153 161 224 262 238 220 215 208 222 223 197 183 184 186 184 170 164 157 157 157 155 146 145 150 148 138 144 151 149 159 176 178 177 166 168 181 185 175 168 163 161 183 178 184 225
152 157 143 150 202 173 173 259 288 221 220 201 216 217 197 149 158 166 150 145 155 157 159 156 151 145 147 146 140 144 145 142 148 165 183 175 179 183 181 182 181 181 175 169 175 194 197 200 214